This is the latest recevied weather packets stored in our database for station/object AE5HO. If no packets are shown the sender has not sent any weather packets the latest 10 day(s).
| Time | Temp. | Humidity | Pressure | Rain* | Wind** | Luminosity | Snow |
|---|---|---|---|---|---|---|---|
| 1787384986 | 28.33° C | 70% | 1015.5 hPa | 0 mm | - | 0 W/m² | - |
| 1787384682 | 28.33° C | 71% | 1015.7 hPa | 0 mm | - | 0 W/m² | - |
| 1787384378 | 28.33° C | 71% | 1015.6 hPa | 0 mm | - | 0 W/m² | - |
| 1787384078 | 28.89° C | 71% | 1015.7 hPa | 0 mm | - | 0 W/m² | - |
| 1787383773 | 28.89° C | 70% | 1015.9 hPa | 0 mm | - | 0 W/m² | - |
| 1787383469 | 28.89° C | 70% | 1016 hPa | 0 mm | - | 0 W/m² | - |
| 1787383165 | 28.89° C | 71% | 1015.7 hPa | 0 mm | - | 0 W/m² | - |
| 1787382861 | 28.89° C | 70% | 1015.7 hPa | 0 mm | - | 0 W/m² | - |
| 1787382560 | 29.44° C | 70% | 1015.7 hPa | 0 mm | - | 0 W/m² | - |
| 1787382255 | 29.44° C | 70% | 1015.5 hPa | 0 mm | - | 0 W/m² | - |
| 1787381954 | 29.44° C | 70% | 1015.9 hPa | 0 mm | - | 0 W/m² | - |
| 1787381649 | 29.44° C | 70% | 1015.7 hPa | 0 mm | - | 0 W/m² | - |
| 1787381348 | 29.44° C | 70% | 1015.9 hPa | 0 mm | - | 0 W/m² | - |
| 1787381043 | 28.89° C | 71% | 1015.8 hPa | 0 mm | - | 0 W/m² | - |
| 1787380742 | 28.89° C | 71% | 1015.8 hPa | 0 mm | - | 0 W/m² | - |
| 1787380439 | 28.89° C | 71% | 1015.9 hPa | 0 mm | - | 0 W/m² | - |
| 1787380135 | 29.44° C | 71% | 1016 hPa | 0 mm | - | 0 W/m² | - |
| 1787379831 | 28.89° C | 73% | 1016.2 hPa | 0 mm | - | 0 W/m² | - |
| 1787379530 | 29.44° C | 77% | 1016.2 hPa | 0 mm | - | 0 W/m² | - |
| 1787379224 | 29.44° C | 72% | 1016.1 hPa | 0 mm | - | 0 W/m² | - |
| 1787378924 | 29.44° C | 72% | 1016.1 hPa | 0 mm | - | 0 W/m² | - |
| 1787378619 | 29.44° C | 69% | 1016.2 hPa | 0 mm | - | 0 W/m² | - |
| 1787378318 | 29.44° C | 68% | 1016.4 hPa | 0 mm | - | 0 W/m² | - |
| 1787378014 | 30° C | 68% | 1016.2 hPa | 0 mm | - | 0 W/m² | - |
| 1787377713 | 30° C | 67% | 1016.2 hPa | 0 mm | - | 0 W/m² | - |
* Rain latest hour (hover to see other rain measurements)
** Current wind speed in m/s (hover to see current wind gust speed)